| time (UTC) | temp F | wind direction | speed MPH | gust MPH | rain 1hr in | rain 24hr in | rain mn in | humidity % | barometer mb |
| 20260901110040 | 57 | 194 | 0.0 | 0.0 | 0.00 | 0.00 | 0.00 | 93 | 1009.5 |
| 20260901104542 | 58 | 194 | 0.0 | 0.0 | 0.00 | 0.00 | 0.00 | 93 | 1009.5 |
| 20260901103039 | 58 | 194 | 0.0 | 0.0 | 0.00 | 0.00 | 0.00 | 92 | 1009.4 |
| 20260901101550 | 58 | 194 | 0.0 | 0.0 | 0.00 | 0.00 | 0.00 | 92 | 1009.4 |
| 20260901100037 | 58 | 194 | 0.0 | 0.0 | 0.00 | 0.00 | 0.00 | 92 | 1009.5 |
| 20260901094539 | 58 | 194 | 0.0 | 0.0 | 0.00 | 0.00 | 0.00 | 92 | 1009.4 |
| 20260901093035 | 58 | 194 | 0.0 | 0.0 | 0.00 | 0.00 | 0.00 | 92 | 1009.6 |
| 20260901091535 | 58 | 194 | 0.0 | 0.0 | 0.00 | 0.00 | 0.00 | 92 | 1009.6 |
| 20260901090034 | 58 | 194 | 0.0 | 0.0 | 0.00 | 0.00 | 0.00 | 92 | 1009.6 |
| 20260901084533 | 58 | 194 | 0.0 | 0.0 | 0.00 | 0.00 | 0.00 | 92 | 1009.6 |
| 20260901083033 | 58 | 194 | 0.0 | 0.0 | 0.00 | 0.00 | 0.00 | 92 | 1009.5 |
| 20260901081533 | 58 | 194 | 0.0 | 0.0 | 0.00 | 0.00 | 0.00 | 92 | 1009.5 |
| 20260901080032 | 58 | 194 | 0.0 | 0.0 | 0.00 | 0.00 | 0.00 | 92 | 1009.5 |
| 20260901074542 | 58 | 194 | 0.0 | 0.0 | 0.00 | 0.00 | 0.00 | 92 | 1009.5 |
| 20260901073037 | 58 | 194 | 0.0 | 0.0 | 0.00 | 0.00 | 0.00 | 92 | 1009.6 |
| 20260901071529 | 57 | 194 | 0.0 | 0.0 | 0.00 | 0.00 | 0.00 | 91 | 1009.6 |
| 20260901070030 | 58 | 194 | 0.0 | 0.0 | 0.00 | 0.00 | 0.00 | 91 | 1009.6 |
| 20260901064529 | 58 | 194 | 0.0 | 0.0 | 0.00 | 0.00 | 0.00 | 91 | 1009.7 |
| 20260901063025 | 57 | 194 | 0.0 | 0.0 | 0.00 | 0.00 | 0.00 | 91 | 1009.8 |
| 20260901061525 | 57 | 194 | 0.0 | 0.0 | 0.00 | 0.00 | 0.00 | 91 | 1009.8 |
| 20260901060024 | 57 | 194 | 0.0 | 0.0 | 0.00 | 0.00 | 0.00 | 91 | 1009.8 |
| 20260901054524 | 57 | 194 | 0.0 | 0.0 | 0.00 | 0.00 | 0.00 | 91 | 1010.0 |
| 20260901053024 | 57 | 194 | 0.0 | 0.0 | 0.00 | 0.00 | 0.00 | 91 | 1010.1 |
| 20260901051530 | 57 | 194 | 0.0 | 0.0 | 0.00 | 0.00 | 0.00 | 91 | 1010.3 |
| 20260901050022 | 57 | 194 | 0.0 | 0.0 | 0.00 | 0.00 | 0.00 | 91 | 1010.4 |
| 20260901044523 | 57 | 194 | 0.0 | 0.0 | 0.00 | 0.00 | 0.00 | 91 | 1010.3 |
| 20260901043022 | 57 | 194 | 0.0 | 0.0 | 0.00 | 0.00 | 0.00 | 91 | 1010.4 |
| 20260901041544 | 57 | 194 | 0.0 | 0.0 | 0.00 | 0.00 | 0.00 | 90 | 1010.3 |
| 20260901040021 | 57 | 194 | 0.0 | 0.0 | 0.00 | 0.00 | 0.00 | 90 | 1010.3 |
| 20260901034519 | 57 | 194 | 0.0 | 0.0 | 0.00 | 0.00 | 0.00 | 90 | 1010.0 |
| 20260901033016 | 57 | 194 | 0.0 | 0.0 | 0.00 | 0.00 | 0.00 | 90 | 1009.9 |
| 20260901031516 | 57 | 194 | 0.0 | 0.0 | 0.00 | 0.00 | 0.00 | 88 | 1009.8 |
| 20260901030014 | 57 | 194 | 0.0 | 1.0 | 0.00 | 0.00 | 0.00 | 88 | 1009.8 |
| 20260901024514 | 57 | 194 | 0.0 | 2.0 | 0.00 | 0.00 | 0.00 | 88 | 1009.7 |
| 20260901023016 | 57 | 194 | 0.0 | 3.0 | 0.00 | 0.00 | 0.00 | 88 | 1009.6 |
| 20260901021517 | 57 | 145 | 0.0 | 4.0 | 0.00 | 0.00 | 0.00 | 88 | 1009.5 |
| 20260901020012 | 58 | 224 | 1.0 | 3.0 | 0.00 | 0.00 | 0.00 | 87 | 1009.6 |
| 20260901014529 | 58 | 209 | 2.0 | 5.0 | 0.00 | 0.00 | 0.00 | 87 | 1009.6 |
| 20260901013011 | 58 | 224 | 2.0 | 5.0 | 0.00 | 0.00 | 0.00 | 86 | 1009.6 |
| 20260901011512 | 59 | 221 | 1.0 | 4.0 | 0.00 | 0.00 | 0.00 | 85 | 1009.4 |
| 20260901010009 | 60 | 181 | 1.0 | 5.0 | 0.00 | 0.00 | 0.00 | 84 | 1009.4 |
| 20260901004507 | 60 | 184 | 2.0 | 7.0 | 0.00 | 0.00 | 0.00 | 82 | 1009.5 |
| 20260901003007 | 61 | 227 | 2.0 | 5.0 | 0.00 | 0.00 | 0.00 | 81 | 1009.5 |
| 20260901001505 | 61 | 102 | 3.0 | 5.0 | 0.00 | 0.00 | 0.00 | 80 | 1009.2 |
| 20260901000005 | 62 | 220 | 2.0 | 6.0 | 0.00 | 0.00 | 0.00 | 80 | 1009.2 |
| 20260831234507 | 63 | 227 | 3.0 | 7.0 | 0.00 | 0.00 | 0.00 | 80 | 1009.2 |
| 20260831233003 | 62 | 214 | 2.0 | 10.0 | 0.00 | 0.00 | 0.00 | 80 | 1009.2 |
| 20260831231502 | 64 | 227 | 3.0 | 10.0 | 0.00 | 0.00 | 0.00 | 76 | 1009.0 |
| 20260831230002 | 68 | 205 | 3.0 | 9.0 | 0.00 | 0.00 | 0.00 | 71 | 1009.0 |
| 20260831224502 | 68 | 231 | 4.0 | 10.0 | 0.00 | 0.00 | 0.00 | 74 | 1008.9 |
| 20260831223101 | 69 | 190 | 4.0 | 7.0 | 0.00 | 0.00 | 0.00 | 72 | 1009.0 |
| 20260831221600 | 72 | 165 | 3.0 | 10.0 | 0.00 | 0.00 | 0.00 | 70 | 1009.0 |
| 20260831220056 | 70 | 172 | 4.0 | 10.0 | 0.00 | 0.00 | 0.00 | 72 | 1009.0 |
| 20260831214604 | 69 | 195 | 4.0 | 9.0 | 0.00 | 0.00 | 0.00 | 73 | 1009.1 |
| 20260831213053 | 68 | 226 | 4.0 | 8.0 | 0.00 | 0.00 | 0.00 | 73 | 1009.0 |
| 20260831211555 | 68 | 219 | 2.0 | 9.0 | 0.00 | 0.00 | 0.00 | 73 | 1009.0 |
| 20260831210051 | 68 | 203 | 4.0 | 11.0 | 0.00 | 0.00 | 0.00 | 74 | 1009.0 |
| 20260831204550 | 68 | 202 | 2.0 | 8.0 | 0.00 | 0.00 | 0.00 | 74 | 1009.0 |
| 20260831203049 | 67 | 227 | 2.0 | 5.0 | 0.00 | 0.00 | 0.00 | 73 | 1009.1 |
| 20260831201549 | 67 | 261 | 2.0 | 7.0 | 0.00 | 0.00 | 0.00 | 73 | 1009.1 |
| 20260831200049 | 67 | 230 | 3.0 | 9.0 | 0.00 | 0.00 | 0.00 | 74 | 1009.1 |
| 20260831194547 | 67 | 224 | 2.0 | 6.0 | 0.00 | 0.00 | 0.00 | 75 | 1009.1 |
| 20260831193045 | 67 | 190 | 2.0 | 6.0 | 0.00 | 0.00 | 0.00 | 75 | 1009.1 |
| 20260831191543 | 66 | 202 | 3.0 | 7.0 | 0.00 | 0.00 | 0.00 | 76 | 1009.1 |
| 20260831190041 | 65 | 239 | 1.0 | 4.0 | 0.00 | 0.00 | 0.00 | 78 | 1009.1 |
| 20260831184540 | 64 | 257 | 0.0 | 2.0 | 0.00 | 0.00 | 0.00 | 78 | 1009.1 |
| 20260831183036 | 63 | 224 | 0.0 | 3.0 | 0.00 | 0.00 | 0.00 | 80 | 1009.0 |
| 20260831181535 | 62 | 223 | 1.0 | 5.0 | 0.00 | 0.00 | 0.00 | 81 | 1009.0 |
| 20260831180033 | 61 | 207 | 0.0 | 2.0 | 0.00 | 0.00 | 0.00 | 84 | 1009.1 |
| 20260831174532 | 61 | 207 | 0.0 | 2.0 | 0.00 | 0.00 | 0.00 | 83 | 1009.1 |
| 20260831173029 | 60 | 208 | 2.0 | 4.0 | 0.00 | 0.00 | 0.00 | 84 | 1009.1 |
| 20260831171527 | 60 | 212 | 0.0 | 0.0 | 0.00 | 0.00 | 0.00 | 85 | 1008.9 |
| 20260831170028 | 59 | 187 | 0.0 | 0.0 | 0.00 | 0.00 | 0.00 | 87 | 1008.8 |
| 20260831164522 | 58 | 187 | 0.0 | 0.0 | 0.00 | 0.00 | 0.00 | 90 | 1008.7 |
| 20260831163015 | 58 | 184 | 0.0 | 0.0 | 0.00 | 0.00 | 0.00 | 92 | 1008.7 |
| 20260831161517 | 57 | 183 | 0.0 | 0.0 | 0.00 | 0.00 | 0.00 | 94 | 1008.8 |
| 20260831160012 | 56 | 185 | 0.0 | 0.0 | 0.00 | 0.00 | 0.00 | 95 | 1008.9 |
| 20260831154504 | 55 | 111 | 0.0 | 0.0 | 0.00 | 0.00 | 0.00 | 95 | 1008.9 |
| 20260831153003 | 56 | 103 | 0.0 | 0.0 | 0.00 | 0.00 | 0.00 | 95 | 1008.8 |
| 20260831151607 | 55 | 99 | 0.0 | 0.0 | 0.00 | 0.00 | 0.00 | 96 | 1008.9 |
| 20260831150058 | 54 | 91 | 0.0 | 0.0 | 0.00 | 0.00 | 0.00 | 96 | 1008.7 |
| 20260831144554 | 54 | 91 | 0.0 | 0.0 | 0.00 | 0.00 | 0.00 | 96 | 1008.6 |
| 20260831143109 | 53 | 91 | 0.0 | 0.0 | 0.00 | 0.00 | 0.00 | 95 | 1008.3 |
| 20260831141559 | 51 | 91 | 0.0 | 0.0 | 0.00 | 0.00 | 0.00 | 95 | 1008.3 |
| 20260831140053 | 51 | 91 | 0.0 | 0.0 | 0.00 | 0.00 | 0.00 | 95 | 1008.1 |
| 20260831134551 | 51 | 91 | 0.0 | 0.0 | 0.00 | 0.00 | 0.00 | 95 | 1008.0 |
| 20260831133050 | 51 | 91 | 0.0 | 0.0 | 0.00 | 0.00 | 0.00 | 95 | 1007.9 |
| 20260831131550 | 51 | 91 | 0.0 | 0.0 | 0.00 | 0.00 | 0.00 | 95 | 1007.8 |
| 20260831130052 | 51 | 91 | 0.0 | 0.0 | 0.00 | 0.00 | 0.00 | 95 | 1007.9 |
| 20260831124547 | 51 | 91 | 0.0 | 0.0 | 0.00 | 0.00 | 0.00 | 95 | 1007.9 |
| 20260831123045 | 51 | 91 | 0.0 | 0.0 | 0.00 | 0.00 | 0.00 | 95 | 1007.8 |
| 20260831121544 | 51 | 91 | 0.0 | 0.0 | 0.00 | 0.00 | 0.00 | 95 | 1007.9 |
| 20260831120043 | 51 | 91 | 0.0 | 0.0 | 0.00 | 0.00 | 0.00 | 95 | 1007.9 |
| 20260831114549 | 52 | 91 | 0.0 | 0.0 | 0.00 | 0.00 | 0.00 | 95 | 1008.0 |
| 20260831113040 | 52 | 91 | 0.0 | 0.0 | 0.00 | 0.00 | 0.00 | 94 | 1008.1 |
| 20260831111544 | 52 | 91 | 0.0 | 0.0 | 0.00 | 0.00 | 0.00 | 94 | 1008.1 |